Ballina Observation History
Time Wind Speed Temp Pressure Rel. Hum Rain
07/12:30pm SSE 7-10 kts 25.1°c 1015.1 hPa 71% 0.2mm
07/12:00pm SSE 8-11 kts 25.1°c 1015.3 hPa 67% 0.2mm
07/11:30am SE 6-8 kts 24.7°c 1015.5 hPa 65% 0.0mm
07/11:00am S 7-10 kts 24.3°c 1015.8 hPa 71% 0.0mm
07/10:30am SSW 5-8 kts 24.5°c 1016.1 hPa 72% 0.0mm
07/10:00am SSW 5-7 kts 23.9°c 1016.1 hPa 69% 0.0mm
07/09:30am WSW 4-7 kts 23.0°c 1015.9 hPa 78% 0.0mm
07/09:00am WSW 7-11 kts 21.3°c 1015.7 hPa 84% 1.4mm
07/08:30am W 6-7 kts 20.6°c 1015.5 hPa 88% 1.4mm
07/08:00am W 6-7 kts 20.1°c 1015.3 hPa 91% 1.4mm
07/07:30am W 1-3 kts 19.7°c 1015.0 hPa 92% 1.4mm
07/07:00am WSW 2-4 kts 19.5°c 1014.8 hPa 93% 1.4mm
07/06:30am SSE 3-6 kts 19.3°c 1014.4 hPa 94% 1.4mm
07/06:00am W 4 kts 19.3°c 1013.9 hPa 93% 1.4mm
07/05:30am W 4-6 kts 19.5°c 1013.5 hPa 93% 1.4mm
07/05:00am WSW 5-6 kts 19.5°c 1013.2 hPa 93% 1.4mm
07/04:30am WSW 5-7 kts 19.4°c 1013.2 hPa 94% 1.4mm
07/04:00am W 7 kts 19.6°c 1013.0 hPa 93% 1.4mm
07/03:30am SW 4-5 kts 20.0°c 1013.1 hPa 92% 1.4mm
07/03:00am SW 5-6 kts 19.8°c 1013.2 hPa 91% 1.4mm
07/02:46am SW 7-8 kts 19.7°c 1013.3 hPa 92% 1.4mm
07/02:30am SW 3-4 kts 20.2°c 1013.4 hPa 89% 1.2mm
07/02:21am SW 4-6 kts 20.4°c 1013.5 hPa 89% 1.0mm
07/02:00am S 5-8 kts 21.3°c 1013.4 hPa 81% 0.8mm
07/01:30am W 6-8 kts 20.8°c 1013.3 hPa 86% 0.8mm
07/01:00am WSW 5-6 kts 20.8°c 1013.2 hPa 86% 0.8mm
07/12:30am W 4-5 kts 20.8°c 1013.4 hPa 87% 0.8mm
07/12:00am WNW 4-5 kts 21.0°c 1013.3 hPa 87% 0.8mm
Time Wind Speed Temp Pressure Rel. Hum Rain
06/11:30pm S 4-7 kts 21.7°c 1013.3 hPa 79% 0.8mm
06/11:00pm WNW 1-4 kts 21.3°c 1013.3 hPa 82% 0.6mm
06/10:30pm SE 7-10 kts 21.5°c 1013.3 hPa 78% 0.6mm
06/10:00pm ESE 4-6 kts 22.4°c 1013.0 hPa 70% 0.6mm
06/09:30pm SE 6-8 kts 22.6°c 1012.9 hPa 69% 0.6mm
06/09:00pm SE 6-9 kts 22.8°c 1012.5 hPa 68% 0.6mm
06/08:30pm SE 7-10 kts 22.7°c 1012.0 hPa 68% 0.6mm
06/08:00pm SE 8-13 kts 22.8°c 1011.6 hPa 68% 0.6mm
06/07:30pm SE 7-9 kts 22.4°c 1011.4 hPa 70% 0.6mm
06/07:00pm SE 9-12 kts 22.6°c 1011.0 hPa 70% 0.6mm
06/06:30pm SE 8-12 kts 23.3°c 1010.5 hPa 66% 0.6mm
06/06:00pm SSE 10-13 kts 23.4°c 1010.2 hPa 64% 0.6mm
06/05:30pm SSE 8-12 kts 23.4°c 1010.1 hPa 64% 0.6mm
06/05:00pm SE 10-13 kts 24.4°c 1009.8 hPa 63% 0.6mm
06/04:30pm SSE 9-14 kts 24.9°c 1009.8 hPa 66% 0.6mm
06/04:00pm SE 9-13 kts 24.4°c 1010.1 hPa 68% 0.6mm
06/03:30pm SSE 13-18 kts 24.0°c 1010.0 hPa 70% 0.6mm
06/03:00pm SSE 11-15 kts 24.9°c 1010.1 hPa 58% 0.6mm
06/02:30pm SSE 11-19 kts 25.3°c 1010.0 hPa 62% 0.6mm
06/02:00pm SSE 9-13 kts 24.5°c 1010.3 hPa 61% 0.6mm
06/01:30pm SSE 10-15 kts 23.6°c 1010.4 hPa 67% 0.6mm
06/01:00pm SE 3-8 kts 22.8°c 1010.7 hPa 72% 0.6mm
06/12:30pm SSE 5-8 kts 22.4°c 1010.7 hPa 75% 0.6mm
06/12:00pm S 7-12 kts 22.3°c 1010.9 hPa 78% 0.6mm
06/11:40am S 7-13 kts 22.7°c 1010.8 hPa 78% 0.6mm
06/11:30am SE 7-13 kts 22.5°c 1010.6 hPa 75% 0.6mm
06/11:28am SE 8-14 kts 22.3°c 1010.6 hPa 75% 0.6mm
06/11:00am SSE 9-13 kts 24.2°c 1010.7 hPa 67% 0.2mm
06/10:30am SSE 8-13 kts 23.6°c 1010.7 hPa 67% 0.2mm
06/10:00am WSW 4-6 kts 21.6°c 1010.6 hPa 88% 0.2mm
06/09:30am W 5-7 kts 20.6°c 1010.4 hPa 90% 0.2mm
06/09:05am WSW 8-10 kts 20.5°c 1010.0 hPa 88% 0.0mm
06/09:00am W 7-10 kts 20.3°c 1009.9 hPa 90% 5.4mm
06/08:32am SW 5-7 kts 20.3°c 1009.7 hPa 87% 4.4mm
06/08:30am SW 5-7 kts 20.3°c 1009.6 hPa 88% 4.2mm
06/08:19am SW 8-10 kts 20.2°c 1009.6 hPa 89% 3.8mm
06/08:00am SW 5-8 kts 19.9°c 1009.3 hPa 91% 3.4mm
06/07:59am SW 5-8 kts 19.9°c 1009.3 hPa 91% 3.4mm
06/07:30am W 8-10 kts 20.0°c 1008.8 hPa 90% 2.6mm
06/07:00am S 5-7 kts 20.3°c 1008.4 hPa 88% 2.2mm
06/06:30am SE 9-12 kts 20.4°c 1008.1 hPa 89% 2.0mm
06/06:00am SSW 3-5 kts 20.2°c 1007.8 hPa 94% 1.8mm
06/05:59am SSW 4-5 kts 20.2°c 1007.8 hPa 94% 1.8mm
06/05:30am SSW 6-9 kts 20.2°c 1007.5 hPa 94% 1.4mm
06/05:05am S 12-21 kts 20.7°c 1007.5 hPa 87% 0.2mm
06/05:00am SE 9-18 kts 22.4°c 1007.3 hPa 76% 0.0mm
06/04:30am SE 9-14 kts 23.1°c 1007.0 hPa 72% 0.0mm
06/04:00am SSE 11-15 kts 23.2°c 1007.1 hPa 69% 0.0mm
06/03:30am SE 12-17 kts 23.2°c 1007.1 hPa 70% 0.0mm
06/03:00am SE 11-15 kts 23.2°c 1007.2 hPa 70% 0.0mm
06/02:30am SE 12-17 kts 23.4°c 1007.4 hPa 72% 0.0mm
06/02:00am SSE 12-18 kts 23.5°c 1007.5 hPa 69% 0.0mm
06/01:30am SE 13-19 kts 23.6°c 1007.7 hPa 72% 0.0mm
06/01:00am SE 13-18 kts 23.7°c 1007.7 hPa 72% 0.0mm
06/12:30am SSE 14-20 kts 23.9°c 1007.7 hPa 70% 0.0mm
06/12:00am SE 15-20 kts 24.0°c 1007.7 hPa 73% 0.0mm
Time Wind Speed Temp Pressure Rel. Hum Rain
05/11:30pm SE 14-19 kts 24.1°c 1007.6 hPa 74% 0.0mm
05/11:00pm SSE 14-20 kts 24.3°c 1007.7 hPa 74% 0.0mm
05/10:30pm SSE 12-18 kts 24.4°c 1007.6 hPa 72% 0.0mm
05/10:00pm SSE 12-17 kts 24.5°c 1007.5 hPa 68% 0.0mm
05/09:30pm SSE 10-15 kts 24.8°c 1007.5 hPa 68% 0.0mm
05/09:00pm SSE 11-16 kts 24.8°c 1007.2 hPa 58% 0.0mm
05/08:30pm SE 11-15 kts 25.0°c 1006.7 hPa 61% 0.0mm
05/08:00pm SE 8-12 kts 24.1°c 1006.4 hPa 64% 0.0mm
05/07:30pm SE 8-12 kts 24.5°c 1005.8 hPa 60% 0.0mm
05/07:00pm SE 9-11 kts 25.2°c 1005.4 hPa 56% 0.0mm
05/06:30pm E 5-7 kts 26.0°c 1004.9 hPa 65% 0.0mm
05/06:00pm ENE 6-8 kts 26.3°c 1004.5 hPa 63% 0.0mm
05/05:30pm NE 8-11 kts 26.8°c 1004.4 hPa 64% 0.0mm
05/05:00pm ENE 8-11 kts 27.0°c 1004.1 hPa 59% 0.0mm
05/04:30pm NE 8-10 kts 27.5°c 1004.0 hPa 59% 0.0mm
05/04:00pm ENE 8-11 kts 27.9°c 1004.1 hPa 58% 0.0mm
05/03:30pm ENE 7-11 kts 27.9°c 1004.3 hPa 60% 0.0mm
05/03:00pm S 6-10 kts 29.3°c 1004.5 hPa 41% 0.0mm
05/02:30pm SW 8-13 kts 29.2°c 1004.6 hPa 42% 0.0mm
05/02:00pm WSW 8-12 kts 29.1°c 1004.9 hPa 44% 0.0mm
05/01:30pm WSW 10-15 kts 28.4°c 1005.3 hPa 49% 0.0mm
05/01:00pm WNW 9-15 kts 28.0°c 1005.6 hPa 52% 0.0mm
05/12:30pm W 11-17 kts 27.6°c 1006.0 hPa 53% 0.0mm
05/12:00pm WNW 10-13 kts 26.9°c 1006.6 hPa 54% 0.0mm
05/11:30am NW 9-12 kts 26.3°c 1007.1 hPa 58% 0.0mm
05/11:00am NW 9-14 kts 25.3°c 1007.5 hPa 62% 0.0mm
05/10:30am NW 6-12 kts 25.1°c 1007.8 hPa 65% 0.0mm
05/10:00am NNW 6-8 kts 24.4°c 1008.1 hPa 63% 0.0mm
05/09:30am NW 6-9 kts 23.5°c 1008.2 hPa 69% 0.0mm
05/09:00am NNW 6-8 kts 22.1°c 1007.9 hPa 73% 0.2mm
05/08:30am NW 3-5 kts 20.6°c 1007.9 hPa 80% 0.2mm
05/08:00am CALM 0 kts 19.2°c 1007.9 hPa 89% 0.2mm
05/07:30am CALM 0 kts 16.8°c 1007.9 hPa 95% 0.2mm
05/07:00am CALM 0 kts 15.6°c 1007.8 hPa 95% 0.2mm
05/06:30am CALM 0 kts 15.4°c 1007.8 hPa 96% 0.2mm
05/06:00am CALM 0 kts 14.9°c 1007.9 hPa 96% 0.2mm
05/05:30am CALM 0 kts 15.0°c 1007.9 hPa 95% 0.2mm
05/05:00am CALM 0 kts 15.4°c 1007.9 hPa 96% 0.2mm
05/04:30am CALM 0 kts 15.4°c 1008.0 hPa 95% 0.2mm
05/04:00am CALM 0 kts 15.6°c 1008.2 hPa 95% 0.2mm
05/03:30am CALM 0 kts 16.0°c 1008.5 hPa 95% 0.2mm
05/03:00am CALM 0 kts 16.1°c 1008.7 hPa 94% 0.2mm
05/02:30am CALM 0 kts 16.4°c 1009.1 hPa 95% 0.2mm
05/02:00am CALM 0 kts 16.1°c 1009.6 hPa 95% 0.2mm
05/01:30am CALM 0 kts 16.5°c 1010.0 hPa 95% 0.2mm
05/01:00am CALM 0 kts 16.5°c 1010.3 hPa 94% 0.2mm
05/12:30am CALM 0 kts 16.8°c 1010.5 hPa 94% 0.2mm
05/12:00am CALM 0 kts 16.9°c 1010.8 hPa 93% 0.2mm